ラ・サグラ彗星

279P/La Sagra (2009)

English version
Home page
Updated on February 9, 2013

---------------------------------------------------------------------

・ プロフィール

符号 279P/2009 QG31
発見日 2009年8月19日
発見光度 18.4等
発見者 La Sagra Sky Survey

・ 写真集

・ 軌道要素

Epoch 2009 Oct. 16.0 TT = JDT 2455120.5
T 2009 Oct. 10.47669 TT                                 MPC
q   2.1477627            (2000.0)            P               Q
n   0.14584926     Peri.    5.94681     +0.99066761     +0.13468367
a   3.5743732      Node   346.25973     -0.12840328     +0.87069939
e   0.3991219      Incl.    5.05502     -0.04571970     +0.47301467
P   6.76
From 131 observations 2002 July 11-2009 Nov. 17, mean residual 0".5.

・ 光度変化

        m1 = 15.2 + 5 logΔ + 10.0 log r

---------------------------------------------------------------------

軌道要素はM.P.E.C. 2013-C07に掲載されたものです。
光度グラフはComet for Windowsで作成したものです。

---------------------------------------------------------------------

Copyright(C) Seiichi Yoshida (comet@aerith.net). All rights reserved.